Вернуться в каталог

SL-14 DEB

АктивенPO
NORAD 17271·DEBRIS·🇷🇺 Russia

Запущен Dec 18, 1986 с Plesetsk Cosmodrome

Loading…

Ближайшие Пролёты (ближайшие 24 часа)

TLE

СвежийSource: Space-Track

Эпоха: Sep 14, 2026, 10:20 UTC

1 17271U 86101F   26257.43095681  .00000378  00000-0  23503-3 0  9996
2 17271  82.4081 144.9822 0024877 236.8299 299.5929 14.02646114 24415

Отслеживайте SL-14 DEB в реальном времени с AllMySat

Download on the App Store